When you browse on this site, cookies collect data to enhance your experience and personalize the content and advertising you see.
Visit our Privacy Policy to learn more. By continuing to use the site, you agree to this use of cookies and data.
  • In Österreich
  • Länderverzeichnis
  • Für 7 Tage
  • Wassertemperatur
  • Satellitenkarten
  • Wetterkarte
  • News
  • Widgets
  • user-avatar
    Anmelden

    Stündliche Wetter Kormuzh

    Heute, 19 Juli, Freitag

    Zeit Temperatur Niederschläge Wind Luftdruck Luftfeuchtigkeit
    00:00 +13°C° 0 mm 3 m/S 746 mmHg 96%
    01:00 +13°C° 0 mm 3 m/S 746 mmHg 96%
    02:00 +12°C° 0 mm 3 m/S 746 mmHg 96%
    03:00 +12°C° 0 mm 3 m/S 747 mmHg 96%
    04:00 +12°C° 0 mm 3 m/S 747 mmHg 97%
    05:00 +13°C° 0 mm 2 m/S 747 mmHg 97%
    06:00 +13°C° 0 mm 3 m/S 747 mmHg 92%
    07:00 +16°C° 0 mm 3 m/S 748 mmHg 87%
    08:00 +18°C° 0 mm 3 m/S 748 mmHg 82%
    09:00 +19°C° 0.3 mm 3 m/S 748 mmHg 77%
    10:00 +21°C° 0.3 mm 3 m/S 748 mmHg 72%
    11:00 +22°C° 0.3 mm 3 m/S 748 mmHg 67%
    12:00 +24°C° 0.3 mm 3 m/S 748 mmHg 63%
    13:00 +24°C° 0.3 mm 3 m/S 748 mmHg 59%
    14:00 +25°C° 0.3 mm 3 m/S 748 mmHg 54%
    15:00 +24°C° 0.4 mm 3 m/S 748 mmHg 60%
    16:00 +24°C° 0.4 mm 3 m/S 748 mmHg 66%
    17:00 +22°C° 0.4 mm 3 m/S 748 mmHg 71%
    18:00 +20°C° 0.1 mm 2 m/S 748 mmHg 76%
    19:00 +19°C° 0.1 mm 2 m/S 748 mmHg 81%
    20:00 +19°C° 0.1 mm 1 m/S 749 mmHg 86%
    21:00 +18°C° 0 mm 1 m/S 749 mmHg 88%
    22:00 +16°C° 0 mm 1 m/S 749 mmHg 90%
    23:00 +15°C° 0 mm 1 m/S 750 mmHg 91%

    Morgen, 20 Juli, Samstag

    Zeit Temperatur Niederschläge Wind Luftdruck Luftfeuchtigkeit
    00:00 +14°C° 0 mm 1 m/S 750 mmHg 91%
    01:00 +14°C° 0 mm 1 m/S 750 mmHg 91%
    02:00 +13°C° 0 mm 1 m/S 750 mmHg 92%
    03:00 +13°C° 0 mm 1 m/S 750 mmHg 92%
    04:00 +13°C° 0 mm 1 m/S 750 mmHg 92%
    05:00 +13°C° 0 mm 1 m/S 750 mmHg 92%
    06:00 +15°C° 0 mm 1 m/S 751 mmHg 87%
    07:00 +18°C° 0 mm 1 m/S 751 mmHg 82%
    08:00 +20°C° 0 mm 1 m/S 751 mmHg 76%
    09:00 +22°C° 0 mm 1 m/S 751 mmHg 70%
    10:00 +23°C° 0 mm 1 m/S 752 mmHg 63%
    11:00 +25°C° 0 mm 1 m/S 752 mmHg 56%
    12:00 +25°C° 0 mm 1 m/S 752 mmHg 54%
    13:00 +25°C° 0 mm 1 m/S 752 mmHg 53%
    14:00 +26°C° 0 mm 1 m/S 751 mmHg 52%
    15:00 +25°C° 0 mm 1 m/S 751 mmHg 54%
    16:00 +25°C° 0 mm 1 m/S 751 mmHg 55%
    17:00 +25°C° 0 mm 1 m/S 752 mmHg 57%
    18:00 +24°C° 0 mm 1 m/S 752 mmHg 63%
    19:00 +22°C° 0 mm 1 m/S 752 mmHg 68%
    20:00 +20°C° 0 mm 1 m/S 752 mmHg 74%
    21:00 +19°C° 0 mm 1 m/S 752 mmHg 75%
    22:00 +18°C° 0 mm 1 m/S 752 mmHg 77%
    23:00 +16°C° 0 mm 1 m/S 752 mmHg 78%

    übermorgen, 21 Juli, Sonntag

    Zeit Temperatur Niederschläge Wind Luftdruck Luftfeuchtigkeit
    00:00 +16°C° 0 mm 1 m/S 752 mmHg 79%
    01:00 +16°C° 0 mm 1 m/S 752 mmHg 80%
    02:00 +15°C° 0 mm 1 m/S 752 mmHg 82%
    03:00 +15°C° 0 mm 1 m/S 752 mmHg 82%
    04:00 +15°C° 0 mm 1 m/S 752 mmHg 83%
    05:00 +15°C° 0 mm 1 m/S 752 mmHg 83%
    06:00 +18°C° 0 mm 1 m/S 752 mmHg 78%
    07:00 +20°C° 0 mm 1 m/S 752 mmHg 73%
    08:00 +22°C° 0 mm 1 m/S 752 mmHg 68%
    09:00 +23°C° 0 mm 2 m/S 752 mmHg 64%
    10:00 +25°C° 0 mm 2 m/S 752 mmHg 60%
    11:00 +26°C° 0 mm 2 m/S 752 mmHg 56%
    12:00 +26°C° 0 mm 2 m/S 752 mmHg 54%
    13:00 +27°C° 0 mm 2 m/S 752 mmHg 52%
    14:00 +28°C° 0 mm 2 m/S 751 mmHg 51%
    15:00 +28°C° 0 mm 2 m/S 751 mmHg 53%
    16:00 +28°C° 0 mm 2 m/S 751 mmHg 55%
    17:00 +28°C° 0 mm 2 m/S 750 mmHg 56%
    18:00 +26°C° 0.1 mm 2 m/S 750 mmHg 64%
    19:00 +24°C° 0.1 mm 2 m/S 750 mmHg 71%
    20:00 +21°C° 0.1 mm 2 m/S 750 mmHg 78%
    21:00 +21°C° 1.2 mm 2 m/S 750 mmHg 84%
    22:00 +20°C° 1.2 mm 2 m/S 750 mmHg 89%
    23:00 +19°C° 1.2 mm 3 m/S 749 mmHg 94%

    22 Juli, Montag

    Zeit Temperatur Niederschläge Wind Luftdruck Luftfeuchtigkeit
    00:00 +19°C° 0.7 mm 3 m/S 749 mmHg 95%
    01:00 +19°C° 0.7 mm 3 m/S 749 mmHg 96%
    02:00 +19°C° 0.7 mm 3 m/S 749 mmHg 97%
    03:00 +18°C° 0 mm 3 m/S 749 mmHg 97%
    04:00 +17°C° 0 mm 3 m/S 749 mmHg 97%
    05:00 +16°C° 0 mm 3 m/S 749 mmHg 97%
    06:00 +17°C° 0 mm 3 m/S 749 mmHg 95%
    07:00 +18°C° 0 mm 3 m/S 749 mmHg 92%
    08:00 +19°C° 0 mm 3 m/S 749 mmHg 90%
    09:00 +21°C° 0 mm 3 m/S 750 mmHg 82%
    10:00 +23°C° 0 mm 4 m/S 750 mmHg 73%
    11:00 +25°C° 0 mm 4 m/S 750 mmHg 65%
    12:00 +26°C° 0.1 mm 4 m/S 750 mmHg 63%
    13:00 +26°C° 0.1 mm 5 m/S 750 mmHg 62%
    14:00 +27°C° 0.1 mm 5 m/S 750 mmHg 60%
    15:00 +26°C° 0.4 mm 5 m/S 750 mmHg 65%
    16:00 +25°C° 0.4 mm 4 m/S 749 mmHg 70%
    17:00 +23°C° 0.4 mm 4 m/S 749 mmHg 75%
    18:00 +22°C° 0.2 mm 3 m/S 749 mmHg 80%
    19:00 +21°C° 0.2 mm 3 m/S 750 mmHg 85%
    20:00 +20°C° 0.2 mm 3 m/S 750 mmHg 90%
    21:00 +19°C° 0 mm 3 m/S 750 mmHg 92%
    22:00 +18°C° 0 mm 3 m/S 750 mmHg 93%
    23:00 +18°C° 0 mm 3 m/S 750 mmHg 94%

    23 Juli, Dienstag

    Zeit Temperatur Niederschläge Wind Luftdruck Luftfeuchtigkeit
    00:00 +17°C° 0 mm 3 m/S 750 mmHg 95%
    01:00 +17°C° 0 mm 3 m/S 749 mmHg 95%
    02:00 +16°C° 0 mm 3 m/S 749 mmHg 96%
    03:00 +15°C° 0 mm 4 m/S 749 mmHg 96%
    04:00 +15°C° 0 mm 4 m/S 749 mmHg 96%
    05:00 +14°C° 0 mm 4 m/S 750 mmHg 96%
    06:00 +15°C° 0 mm 4 m/S 750 mmHg 94%
    07:00 +17°C° 0 mm 4 m/S 749 mmHg 91%
    08:00 +17°C° 0 mm 4 m/S 749 mmHg 89%
    09:00 +19°C° 0 mm 4 m/S 750 mmHg 83%
    10:00 +20°C° 0 mm 4 m/S 750 mmHg 77%
    11:00 +21°C° 0 mm 5 m/S 750 mmHg 71%
    12:00 +22°C° 0.1 mm 5 m/S 750 mmHg 70%
    13:00 +22°C° 0.1 mm 5 m/S 749 mmHg 68%
    14:00 +23°C° 0.1 mm 5 m/S 749 mmHg 67%
    15:00 +23°C° 0 mm 5 m/S 749 mmHg 67%
    16:00 +23°C° 0 mm 5 m/S 749 mmHg 68%
    17:00 +23°C° 0 mm 5 m/S 749 mmHg 68%
    18:00 +21°C° 0.4 mm 4 m/S 749 mmHg 76%
    19:00 +20°C° 0.4 mm 3 m/S 749 mmHg 84%
    20:00 +19°C° 0.4 mm 3 m/S 749 mmHg 91%
    21:00 +18°C° 0 mm 2 m/S 749 mmHg 93%
    22:00 +17°C° 0 mm 2 m/S 749 mmHg 94%
    23:00 +16°C° 0 mm 2 m/S 749 mmHg 95%

    24 Juli, Mittwoch

    Zeit Temperatur Niederschläge Wind Luftdruck Luftfeuchtigkeit
    00:00 +16°C° 0 mm 2 m/S 749 mmHg 95%
    01:00 +16°C° 0 mm 2 m/S 749 mmHg 95%
    02:00 +16°C° 0 mm 2 m/S 749 mmHg 95%
    03:00 +15°C° 0 mm 2 m/S 749 mmHg 95%
    04:00 +15°C° 0 mm 2 m/S 749 mmHg 95%
    05:00 +15°C° 0 mm 2 m/S 749 mmHg 96%
    06:00 +16°C° 0 mm 2 m/S 749 mmHg 93%
    07:00 +17°C° 0 mm 2 m/S 749 mmHg 90%
    08:00 +19°C° 0 mm 3 m/S 749 mmHg 87%
    09:00 +20°C° 0 mm 3 m/S 749 mmHg 77%
    10:00 +21°C° 0 mm 4 m/S 749 mmHg 67%
    11:00 +23°C° 0 mm 4 m/S 749 mmHg 57%
    12:00 +23°C° 0 mm 4 m/S 749 mmHg 56%
    13:00 +23°C° 0 mm 5 m/S 749 mmHg 55%
    14:00 +23°C° 0 mm 5 m/S 749 mmHg 54%
    15:00 +23°C° 0 mm 5 m/S 748 mmHg 56%
    16:00 +22°C° 0 mm 5 m/S 748 mmHg 58%
    17:00 +22°C° 0 mm 5 m/S 748 mmHg 60%
    18:00 +20°C° 0 mm 4 m/S 748 mmHg 66%
    19:00 +19°C° 0 mm 3 m/S 748 mmHg 71%
    20:00 +17°C° 0 mm 2 m/S 748 mmHg 77%
    21:00 +17°C° 0 mm 2 m/S 748 mmHg 80%
    22:00 +16°C° 0 mm 2 m/S 748 mmHg 84%
    23:00 +15°C° 0 mm 2 m/S 748 mmHg 88%
    Mehr zeigen